When you browse on this site, cookies collect data to enhance your experience and personalize the content and advertising you see.
Visit our Privacy Policy to learn more. By continuing to use the site, you agree to this use of cookies and data.
  • In Czech Republic
  • List of Countries
  • For 7 days
  • Water Temperature
  • Weather Map
  • Weather Widgets
  • user-avatar
    Login

    Hourly Weather Stende

    Today, 26 February, Wednesday

    Time Temperature Precipitation Wind Pressure Humidity
    00:00 +1°C° 0.2 mm 3 mps 732 mmHg 93%
    01:00 0°C° 0.2 mm 4 mps 731 mmHg 91%
    02:00 0°C° 0 mm 4 mps 731 mmHg 86%
    03:00 0°C° 0.1 mm 4 mps 731 mmHg 88%
    04:00 0°C° 0.1 mm 4 mps 730 mmHg 89%
    05:00 0°C° 0.1 mm 5 mps 730 mmHg 91%
    06:00 0°C° 0.1 mm 5 mps 730 mmHg 90%
    07:00 0°C° 0.1 mm 5 mps 730 mmHg 90%
    08:00 0°C° 0 mm 5 mps 730 mmHg 88%
    09:00 0°C° 0.2 mm 5 mps 730 mmHg 86%
    10:00 +1°C° 0.2 mm 5 mps 730 mmHg 85%
    11:00 +1°C° 0.2 mm 6 mps 730 mmHg 83%
    12:00 +1°C° 0.4 mm 6 mps 730 mmHg 82%
    13:00 +1°C° 0.4 mm 5 mps 730 mmHg 81%
    14:00 +2°C° 0 mm 5 mps 730 mmHg 77%
    15:00 +1°C° 0.2 mm 5 mps 730 mmHg 80%
    16:00 +1°C° 0.2 mm 5 mps 731 mmHg 84%
    17:00 0°C° 0.2 mm 5 mps 731 mmHg 88%
    18:00 0°C° 0.2 mm 5 mps 731 mmHg 88%
    19:00 0°C° 0.2 mm 4 mps 731 mmHg 88%
    20:00 0°C° 0.2 mm 4 mps 731 mmHg 88%
    21:00 0°C° 0 mm 4 mps 731 mmHg 86%
    22:00 0°C° 0 mm 4 mps 732 mmHg 84%
    23:00 +1°C° 0 mm 3 mps 732 mmHg 82%

    Tomorrow, 27 February, Thursday

    Time Temperature Precipitation Wind Pressure Humidity
    00:00 +1°C° 0 mm 3 mps 732 mmHg 83%
    01:00 0°C° 0 mm 3 mps 732 mmHg 84%
    02:00 0°C° 0 mm 3 mps 732 mmHg 84%
    03:00 0°C° 0 mm 3 mps 732 mmHg 86%
    04:00 -1°C° 0 mm 4 mps 732 mmHg 88%
    05:00 -2°C° 0 mm 4 mps 732 mmHg 90%
    06:00 -2°C° 0.1 mm 4 mps 732 mmHg 91%
    07:00 -2°C° 0.1 mm 4 mps 733 mmHg 92%
    08:00 -2°C° 0.1 mm 4 mps 733 mmHg 93%
    09:00 -1°C° 0.1 mm 4 mps 733 mmHg 92%
    10:00 -1°C° 0.1 mm 4 mps 733 mmHg 91%
    11:00 -1°C° 0.1 mm 4 mps 733 mmHg 91%
    12:00 0°C° 0 mm 3 mps 733 mmHg 89%
    13:00 +1°C° 0 mm 3 mps 734 mmHg 87%
    14:00 +1°C° 0 mm 3 mps 734 mmHg 86%
    15:00 +1°C° 0.1 mm 3 mps 734 mmHg 88%
    16:00 0°C° 0.1 mm 3 mps 734 mmHg 90%
    17:00 0°C° 0.1 mm 3 mps 734 mmHg 92%
    18:00 0°C° 0.2 mm 3 mps 734 mmHg 94%
    19:00 0°C° 0.2 mm 3 mps 734 mmHg 95%
    20:00 -1°C° 0.2 mm 3 mps 734 mmHg 96%
    21:00 -1°C° 0.1 mm 3 mps 734 mmHg 95%
    22:00 -1°C° 0.1 mm 2 mps 734 mmHg 95%
    23:00 -1°C° 0.1 mm 2 mps 734 mmHg 94%

    Day after tomorrow, 28 February, Friday

    Time Temperature Precipitation Wind Pressure Humidity
    00:00 -1°C° 0.1 mm 2 mps 735 mmHg 92%
    01:00 -2°C° 0.1 mm 2 mps 735 mmHg 91%
    02:00 -2°C° 0.1 mm 2 mps 736 mmHg 89%
    03:00 -2°C° 0 mm 2 mps 736 mmHg 89%
    04:00 -2°C° 0 mm 2 mps 736 mmHg 88%
    05:00 -2°C° 0 mm 2 mps 737 mmHg 88%
    06:00 -2°C° 0 mm 2 mps 737 mmHg 88%
    07:00 -2°C° 0 mm 2 mps 737 mmHg 88%
    08:00 -2°C° 0 mm 2 mps 738 mmHg 88%
    09:00 -1°C° 0 mm 3 mps 738 mmHg 84%
    10:00 -1°C° 0 mm 3 mps 739 mmHg 80%
    11:00 -1°C° 0 mm 4 mps 739 mmHg 76%
    12:00 -1°C° 0 mm 4 mps 740 mmHg 73%
    13:00 -1°C° 0 mm 4 mps 740 mmHg 71%
    14:00 0°C° 0 mm 5 mps 741 mmHg 69%
    15:00 -1°C° 0 mm 4 mps 741 mmHg 70%
    16:00 -1°C° 0 mm 4 mps 742 mmHg 72%
    17:00 -2°C° 0 mm 4 mps 742 mmHg 73%
    18:00 -2°C° 0 mm 4 mps 743 mmHg 77%
    19:00 -2°C° 0 mm 3 mps 743 mmHg 80%
    20:00 -4°C° 0 mm 3 mps 743 mmHg 83%
    21:00 -4°C° 0 mm 3 mps 744 mmHg 82%
    22:00 -4°C° 0 mm 3 mps 744 mmHg 81%
    23:00 -4°C° 0 mm 3 mps 745 mmHg 80%

    29 February, Saturday

    Time Temperature Precipitation Wind Pressure Humidity
    00:00 -3°C° 0 mm 2 mps 745 mmHg 81%
    01:00 -3°C° 0 mm 2 mps 745 mmHg 82%
    02:00 -3°C° 0 mm 2 mps 746 mmHg 83%
    03:00 -3°C° 0 mm 2 mps 746 mmHg 82%
    04:00 -3°C° 0 mm 2 mps 746 mmHg 81%
    05:00 -3°C° 0 mm 2 mps 746 mmHg 80%
    06:00 -3°C° 0 mm 2 mps 746 mmHg 79%
    07:00 -3°C° 0 mm 2 mps 746 mmHg 79%
    08:00 -3°C° 0 mm 2 mps 747 mmHg 78%
    09:00 -2°C° 0 mm 2 mps 747 mmHg 74%
    10:00 -1°C° 0 mm 2 mps 747 mmHg 69%
    11:00 +1°C° 0 mm 2 mps 747 mmHg 65%
    12:00 +2°C° 0 mm 2 mps 747 mmHg 64%
    13:00 +3°C° 0 mm 2 mps 747 mmHg 64%
    14:00 +3°C° 0 mm 2 mps 747 mmHg 63%
    15:00 +2°C° 0 mm 3 mps 747 mmHg 66%
    16:00 +1°C° 0 mm 3 mps 747 mmHg 70%
    17:00 +1°C° 0 mm 3 mps 747 mmHg 73%
    18:00 0°C° 0 mm 3 mps 746 mmHg 77%
    19:00 -1°C° 0 mm 4 mps 746 mmHg 80%
    20:00 -2°C° 0 mm 4 mps 746 mmHg 83%
    21:00 -1°C° 0 mm 5 mps 746 mmHg 82%
    22:00 -1°C° 0 mm 5 mps 745 mmHg 81%
    23:00 -2°C° 0 mm 6 mps 745 mmHg 79%

    1 March, Sunday

    Time Temperature Precipitation Wind Pressure Humidity
    00:00 -2°C° 0 mm 6 mps 744 mmHg 77%
    01:00 -2°C° 0 mm 6 mps 743 mmHg 74%
    02:00 -1°C° 0 mm 7 mps 743 mmHg 71%
    03:00 -1°C° 0 mm 7 mps 742 mmHg 73%
    04:00 -1°C° 0 mm 7 mps 741 mmHg 75%
    05:00 -1°C° 0 mm 8 mps 740 mmHg 76%
    06:00 -1°C° 0.1 mm 7 mps 740 mmHg 81%
    07:00 -1°C° 0.1 mm 7 mps 740 mmHg 87%
    08:00 -1°C° 0.1 mm 7 mps 739 mmHg 92%
    09:00 -1°C° 0.2 mm 7 mps 739 mmHg 91%
    10:00 0°C° 0.2 mm 7 mps 739 mmHg 90%
    11:00 +1°C° 0.2 mm 6 mps 739 mmHg 90%
    12:00 +1°C° 0.3 mm 6 mps 739 mmHg 90%
    13:00 +2°C° 0.3 mm 6 mps 739 mmHg 90%
    14:00 +2°C° 0.3 mm 6 mps 739 mmHg 90%
    15:00 +2°C° 0.5 mm 5 mps 739 mmHg 91%
    16:00 +2°C° 0.5 mm 5 mps 739 mmHg 92%
    17:00 +3°C° 0.5 mm 4 mps 739 mmHg 92%
    18:00 +3°C° 0.1 mm 4 mps 739 mmHg 92%
    19:00 +1°C° 0.1 mm 4 mps 739 mmHg 91%
    20:00 +1°C° 0.1 mm 4 mps 739 mmHg 90%
    21:00 +1°C° 0 mm 4 mps 739 mmHg 90%
    22:00 +1°C° 0 mm 4 mps 739 mmHg 90%
    23:00 +1°C° 0 mm 4 mps 739 mmHg 91%

    2 March, Monday

    Time Temperature Precipitation Wind Pressure Humidity
    00:00 +1°C° 0 mm 4 mps 739 mmHg 91%
    01:00 +1°C° 0 mm 4 mps 739 mmHg 90%
    02:00 0°C° 0 mm 4 mps 740 mmHg 90%
    03:00 0°C° 0 mm 4 mps 739 mmHg 90%
    04:00 0°C° 0 mm 4 mps 739 mmHg 89%
    05:00 0°C° 0 mm 4 mps 739 mmHg 88%
    06:00 0°C° 0 mm 4 mps 739 mmHg 88%
    07:00 0°C° 0 mm 4 mps 739 mmHg 88%
    08:00 0°C° 0 mm 4 mps 739 mmHg 88%
    09:00 +1°C° 0 mm 5 mps 739 mmHg 83%
    10:00 +1°C° 0 mm 5 mps 739 mmHg 79%
    11:00 +2°C° 0 mm 6 mps 739 mmHg 74%
    12:00 +2°C° 0.1 mm 6 mps 739 mmHg 76%
    13:00 +3°C° 0.1 mm 6 mps 739 mmHg 77%
    14:00 +3°C° 0.1 mm 6 mps 739 mmHg 78%
    15:00 +2°C° 0.2 mm 6 mps 739 mmHg 77%
    16:00 +2°C° 0.2 mm 5 mps 739 mmHg 76%
    17:00 +2°C° 0.2 mm 5 mps 739 mmHg 75%
    18:00 +2°C° 0 mm 5 mps 739 mmHg 78%
    19:00 +1°C° 0 mm 5 mps 739 mmHg 81%
    20:00 +1°C° 0 mm 5 mps 740 mmHg 84%
    21:00 +1°C° 0 mm 5 mps 740 mmHg 83%
    22:00 0°C° 0 mm 4 mps 740 mmHg 82%
    23:00 0°C° 0 mm 4 mps 740 mmHg 81%
    Show more